Temperature
17 17 17 17 17 17 17 17 17 17 17 17 18 17 17 18 18 18 18 18 18 18 18 18 18 18 18 18 18 18 18 18 18 18 18 18 18 18 18 18 18 18 18
17 17 17 17 17 17 17 17 17 17 17 17 17 17 17 17 17 17 17 18 18 18 18 18 18 18 18 18 18 18 17 18 18 18 18 18 18 18 18 18 18 18 18
17 17 17 17 17 17 17 17 17 17 17 17 17 17 17 17 17 17 17 17 17 17 17 17 17 17 17 17 17 17 17 17 17 18 18 18 18 18 18 18 18 18 18
17 17 17 17 17 17 17 17 17 17 17 17 17 17 17 17 17 17 17 17 17 17 17 17 17 17 17 17 17 17 17 17 17 18 18 18 17 17 18 18 18 18 18
17 17 17 17 17 17 17 17 17 17 17 17 17 17 17 17 16 16 17 17 17 17 17 17 17 17 17 17 17 17 17 17 17 17 17 17 17 17 17 17 18 18 17
17 17 17 17 17 17 17 17 16 16 16 16 16 16 16 16 16 16 16 16 16 17 17 17 17 17 17 17 17 17 17 17 17 17 17 17 17 17 17 17 17 17 17
17 17 17 17 17 17 16 16 16 16 16 16 16 16 16 16 16 16 16 16 16 16 16 16 16 16 17 17 17 17 17 17 17 17 17 17 17 17 17 17 17 17 17
17 17 17 17 16 16 16 16 16 16 16 16 16 16 16 16 16 16 16 16 16 16 16 16 16 16 16 16 16 16 16 17 17 17 17 17 17 17 17 17 17 17 17
17 17 17 17 16 16 16 16 16 16 16 16 16 16 16 16 16 16 16 16 16 16 16 16 16 16 16 16 16 16 16 16 16 17 16 16 16 17 17 17 17 17 17
17 17 17 16 16 16 16 16 16 16 16 16 16 16 16 16 16 16 16 15 16 16 16 16 16 16 16 16 16 16 16 16 16 16 16 16 16 16 16 17 17 17 17
17 17 17 16 16 16 16 16 16 16 16 16 16 16 16 16 16 16 15 15 15 16 16 16 16 16 16 16 16 16 16 16 16 16 16 16 16 16 16 16 16 16 17
17 17 17 16 16 16 16 16 16 16 16 16 16 16 16 16 16 15 15 15 15 16 15 16 16 16 16 16 16 16 16 16 16 16 16 16 16 16 16 16 16 16 16
17 17 17 16 16 16 16 16 16 16 16 16 16 16 16 16 16 15 15 15 15 15 16 15 16 16 16 16 16 16 16 16 16 16 16 16 16 16 16 16 16 16 16
17 17 17 17 16 16 16 16 16 16 16 16 16 16 16 16 16 16 15 15 15 15 15 15 15 16 16 16 16 16 16 16 16 16 16 16 16 16 16 16 15 15 16
17 17 17 17 17 16 16 16 16 16 16 16 16 16 16 16 16 16 16 15 15 15 15 15 15 16 15 15 15 15 15 15 15 15 15 15 15 15 15 15 15 15 15
17 17 17 17 17 16 16 16 16 16 16 16 16 16 16 16 15 16 15 15 15 15 15 15 15 15 15 15 15 15 15 15 15 15 15 15 15 15 15 15 15 15 15
18 17 17 17 17 17 16 16 16 16 16 16 16 16 16 15 15 15 15 15 15 15 15 15 15 15 15 15 15 15 15 15 15 15 15 15 15 15 15 15 15 15 15
18 18 17 17 17 17 16 16 16 16 16 16 16 16 15 15 15 15 15 15 15 15 15 15 15 15 15 15 15 15 14 15 14 14 14 14 14 14 15 15 15 15 14
18 18 17 17 17 17 16 16 16 16 16 16 16 16 16 15 15 15 15 15 15 15 15 15 15 15 15 15 15 14 14 14 14 14 14 14 14 14 14 14 14 14 14
18 18 17 17 17 17 16 16 16 16 16 16 16 16 15 15 15 15 15 15 15 15 15 15 15 15 15 15 14 14 14 14 14 14 14 14 14 14 14 14 14 14 14
18 18 17 17 17 17 16 16 16 16 16 16 16 16 15 15 15 15 15 15 15 15 15 15 15 15 14 14 14 14 14 14 14 14 14 14 14 14 14 14 14 14 14
18 18 17 17 17 17 16 16 16 16 16 16 16 15 15 15 15 15 15 15 15 15 15 15 15 15 14 14 14 14 14 14 14 14 14 14 14 14 14 14 14 14 14
18 18 18 17 17 17 16 16 16 16 16 16 15 15 15 15 15 15 15 15 15 15 15 15 15 15 15 14 14 14 14 14 13 13 13 14 14 14 14 14 14 14 14
18 18 17 17 17 17 16 16 16 16 16 15 15 15 15 15 15 15 15 15 15 15 15 15 15 15 15 14 14 14 14 14 14 13 13 13 13 13 13 13 13 13 13
18 18 17 17 17 16 16 16 16 16 15 15 15 15 15 15 15 15 15 15 15 15 15 15 15 14 14 14 14 14 14 14 14 14 13 13 13 13 13 13 13 13 13
18 18 17 17 17 17 16 16 16 16 15 15 15 15 15 15 15 15 15 15 15 15 15 14 14 14 14 14 14 14 14 14 14 14 14 13 13 13 13 13 13 13 13
Wind_Speed
2 3 3 4 6 7 8 9 9 9 9 10 11 11 11 12 12 12 12 12 12 11 11 11 10 10 10 10 10 9 9 9 9 9 9 9 8 8 8 8 8 7 7
0 1 3 5 6 7 8 8 9 9 9 9 10 10 10 11 11 11 11 11 11 11 11 10 9 9 9 10 10 9 9 9 9 10 9 8 8 8 8 8 7 6 7
2 2 4 5 6 7 7 8 9 9 9 9 9 9 10 10 10 10 11 11 10 10 10 10 9 9 10 10 10 10 9 9 9 10 9 8 7 8 8 8 7 7 7
2 3 3 5 6 7 7 8 9 9 9 9 9 9 10 10 10 10 10 10 10 10 10 10 9 9 9 10 10 10 9 9 10 9 9 8 6 7 8 7 7 7 7
3 3 3 6 7 7 8 8 8 9 9 9 8 8 9 9 9 10 10 9 9 9 9 9 8 8 9 9 10 10 10 11 11 10 9 8 7 7 8 8 7 7 7
3 3 3 6 6 7 7 8 8 8 9 8 8 8 8 8 8 8 9 9 9 8 9 9 9 8 9 9 10 10 11 11 10 9 8 7 6 7 7 7 7 7 7
3 3 3 5 6 7 7 7 7 8 8 8 8 7 8 8 8 8 8 9 9 8 9 9 8 9 9 9 10 10 10 10 9 8 7 6 6 7 7 7 7 7 8
3 4 4 4 5 5 6 7 7 7 8 8 8 8 8 8 7 8 8 9 8 8 9 8 8 9 9 9 10 10 10 10 8 7 6 6 6 7 7 7 7 7 7
3 4 5 6 5 4 5 6 7 7 7 8 7 7 7 7 7 7 8 8 8 8 8 8 8 9 9 10 10 11 11 11 9 7 6 5 6 7 7 7 8 8 8
3 3 3 5 6 5 5 5 5 5 6 7 7 7 8 8 8 7 7 7 7 8 8 8 9 9 9 10 11 11 11 10 8 7 6 5 7 7 7 7 7 8 8
1 2 2 3 4 4 4 5 6 6 6 6 6 8 8 8 8 7 6 7 7 7 8 9 9 9 10 10 11 10 9 8 7 6 5 6 8 8 8 8 8 8 7
1 1 1 1 2 3 3 5 5 5 6 6 6 7 7 7 6 6 7 8 7 8 8 9 9 9 9 8 9 9 8 8 7 6 6 8 8 8 8 8 8 7 7
2 1 0 0 1 1 2 3 3 4 5 5 5 5 6 6 6 7 7 7 8 8 8 8 8 8 7 7 7 7 8 8 7 7 8 8 8 8 8 8 8 8 7
2 2 1 1 0 0 1 2 2 2 3 3 3 4 5 4 4 4 4 5 6 6 6 6 6 7 8 8 8 8 8 7 7 7 8 10 9 9 9 8 9 9 9
3 2 1 2 2 1 1 0 1 1 1 2 3 3 4 3 3 3 4 5 5 5 5 5 6 6 7 7 8 8 7 7 8 8 8 10 10 10 10 10 10 10 10
4 3 2 2 2 2 1 1 1 1 2 2 2 3 4 4 4 4 3 4 4 5 6 6 6 6 5 6 7 7 7 7 8 8 8 9 11 12 12 12 12 12 11
4 3 3 3 2 2 2 1 1 2 3 2 2 3 5 5 5 4 3 3 4 6 7 7 7 6 5 6 6 7 7 7 7 8 9 9 9 12 13 12 12 12 12
4 4 3 3 3 3 3 2 2 3 3 3 3 4 4 5 5 5 3 3 5 6 6 5 4 5 5 5 5 5 5 6 7 8 8 9 9 9 11 13 13 13 12
5 4 4 3 4 3 3 4 4 4 3 3 3 4 4 5 5 5 4 4 6 5 4 4 4 4 4 5 5 5 5 5 6 7 8 9 9 10 10 12 13 14 13
4 4 4 4 4 4 4 3 3 3 3 3 3 3 4 4 5 6 5 4 5 4 4 4 5 4 4 4 6 6 5 5 5 6 6 8 9 10 10 10 10 11 13
4 4 4 4 3 3 3 3 2 1 1 2 2 3 3 5 5 5 4 3 4 4 4 5 5 5 3 3 4 4 4 5 5 5 6 6 7 8 9 9 9 9 10
4 4 4 4 4 3 3 2 2 2 1 1 1 3 3 3 5 5 4 3 4 4 4 4 4 3 2 1 3 3 2 4 4 5 4 5 5 7 7 8 9 9 9
5 5 5 5 4 3 3 3 3 3 3 2 2 1 1 2 4 5 5 4 4 4 4 4 4 4 3 1 2 3 3 1 1 3 4 4 4 4 5 6 8 8 8
6 5 4 5 4 3 4 4 4 3 2 1 0 0 1 2 3 4 5 5 4 3 4 4 4 3 4 2 1 2 2 3 3 1 3 3 4 4 4 5 6 7 8
5 5 4 4 4 3 3 4 4 3 2 1 1 1 1 2 2 3 4 4 3 3 3 3 3 3 3 3 2 2 2 2 2 3 0 2 3 3 3 4 5 6 8
5 5 5 5 4 4 4 4 4 4 3 2 1 1 1 1 1 1 2 3 3 3 3 3 3 4 3 3 2 2 2 2 2 3 2 0 1 2 2 4 4 5 7
Wind_Direction
321 324 25 76 89 91 95 96 96 96 97 100 99 101 104 104 104 101 98 97 96 94 93 91 92 93 93 92 92 89 87 85 84 86 88 87 85 87 87 84 79 76 79
297 12 61 78 89 94 99 100 99 98 97 97 95 95 99 100 102 102 101 98 96 93 91 90 89 93 95 94 92 88 86 82 80 80 78 76 79 83 85 85 83 79 77
65 53 79 89 91 95 100 100 98 97 98 100 101 99 101 101 101 104 104 101 98 96 91 86 86 89 91 93 91 88 88 85 80 75 67 62 70 81 81 79 79 76 73
80 70 86 96 94 97 102 101 97 94 95 97 100 103 102 102 101 101 102 103 101 98 94 88 84 86 88 89 88 86 85 82 78 72 61 54 59 73 74 74 74 70 67
68 70 99 105 100 96 98 99 99 97 98 99 100 102 102 103 102 101 102 103 101 98 97 94 86 84 85 85 84 79 77 76 76 66 60 55 55 67 71 69 69 66 64
54 51 89 108 106 101 100 102 100 97 97 99 96 99 101 103 104 103 103 100 97 95 94 91 85 81 84 83 81 79 78 79 71 62 59 57 59 67 70 70 71 69 64
48 35 62 102 104 107 108 106 103 96 94 93 96 97 98 98 100 101 99 95 92 89 86 83 79 80 83 84 81 80 82 81 73 61 57 57 66 70 71 70 71 68 62
63 36 33 84 103 109 115 111 103 97 90 87 89 92 96 96 96 96 95 91 87 85 81 78 77 83 82 81 81 80 79 77 70 59 55 53 65 69 71 67 67 67 64
55 43 25 31 49 74 100 104 100 92 86 81 83 86 88 88 87 88 91 92 89 87 82 79 78 78 79 80 81 82 77 74 65 56 52 50 63 66 67 65 64 62 62
53 35 23 31 37 42 56 76 85 84 82 79 74 75 72 65 65 73 76 82 83 80 79 79 73 74 75 79 80 78 76 68 59 50 40 51 64 64 64 67 64 58 55
43 18 24 36 33 35 42 52 56 62 68 68 65 64 59 50 48 51 66 75 76 74 73 76 71 69 68 72 76 74 69 62 55 46 41 58 63 64 63 63 62 57 53
248 293 5 24 19 23 40 47 46 49 57 60 60 59 55 52 45 47 54 63 63 65 63 69 67 64 64 63 68 70 63 58 52 45 50 59 60 59 56 57 55 53 54
228 243 202 296 15 38 36 40 43 49 53 54 56 62 60 56 53 50 46 45 51 55 56 63 61 59 62 65 66 66 63 59 49 42 46 56 56 55 53 53 52 53 54
188 231 219 154 116 54 65 52 57 61 65 59 56 70 69 63 60 56 49 47 53 56 57 63 70 65 66 68 70 67 63 58 49 41 42 49 50 51 51 51 55 54 56
192 216 207 169 173 141 108 90 87 77 89 89 79 84 95 89 72 69 59 56 60 64 68 74 76 74 71 70 70 68 60 54 49 44 37 43 46 45 47 52 54 54 56
198 198 183 178 178 145 134 133 111 98 111 105 96 103 113 107 97 86 72 69 67 73 79 83 85 82 75 75 68 64 59 52 47 42 38 38 41 43 46 50 52 52 52
196 187 174 180 153 142 138 136 107 98 106 107 104 108 116 116 111 104 90 78 81 91 93 87 82 79 77 73 65 59 56 51 49 46 41 39 38 41 44 47 48 47 47
172 170 178 163 141 135 123 110 100 96 102 107 109 110 114 122 123 112 101 93 98 99 95 91 83 81 75 73 65 52 48 48 46 46 45 41 41 38 37 43 43 42 42
166 160 157 143 135 131 112 94 85 81 80 82 97 107 112 120 122 112 105 108 108 99 94 102 85 91 91 83 75 60 46 42 38 43 42 41 42 42 40 38 39 39 38
146 141 142 129 125 120 99 85 68 59 53 62 77 100 117 120 118 111 106 107 109 103 92 95 94 78 87 88 81 66 50 44 42 37 36 38 40 43 41 37 33 29 32
128 134 144 142 142 129 112 106 95 77 42 45 60 78 103 118 124 119 115 107 108 111 119 120 111 95 83 94 84 61 40 42 45 35 36 39 37 37 39 37 33 29 22
155 158 155 156 158 157 137 125 120 114 92 64 44 61 78 118 131 134 132 131 121 120 120 126 123 116 109 92 108 96 45 17 20 28 28 38 33 33 35 35 33 30 25
171 178 176 172 166 159 137 113 88 64 45 40 29 8 15 117 132 137 140 136 135 139 149 153 148 144 150 87 83 128 130 174 352 5 23 31 27 27 22 25 28 25 23
187 177 170 167 161 152 140 138 138 138 145 189 200 325 15 84 117 136 144 141 145 147 156 170 161 152 143 143 76 58 109 144 136 44 358 9 21 23 13 20 18 19 20
174 169 167 162 157 152 151 149 139 136 150 134 83 66 31 41 90 126 141 143 146 154 164 166 155 155 149 151 149 127 89 74 94 132 82 343 1 1 7 13 16 16 18
157 160 159 159 165 160 158 155 155 158 155 141 134 116 47 29 44 97 136 142 148 151 159 168 163 158 157 147 146 147 152 148 156 142 152 185 336 327 352 14 18 12 17
Height
1523 1523 1522 1522 1522 1522 1522 1523 1523 1523 1524 1524 1525 1525 1526 1526 1527 1527 1528 1528 1529 1529 1530 1530 1531 1531 1532 1533 1533 1534 1534 1534 1535 1535 1535 1536 1536 1537 1537 1537 1537 1537 1538
1524 1523 1523 1523 1523 1523 1523 1523 1524 1524 1525 1525 1526 1526 1527 1527 1528 1528 1529 1529 1530 1530 1531 1531 1532 1533 1533 1534 1535 1535 1535 1536 1536 1536 1537 1537 1537 1538 1538 1538 1538 1538 1538
1524 1524 1524 1524 1524 1524 1524 1524 1525 1525 1526 1526 1527 1527 1528 1528 1529 1529 1530 1530 1531 1531 1532 1532 1532 1534 1534 1535 1536 1536 1536 1537 1537 1537 1537 1538 1538 1539 1539 1539 1539 1539 1539
1525 1525 1524 1524 1525 1525 1525 1526 1526 1526 1527 1527 1528 1528 1529 1529 1530 1530 1531 1532 1532 1533 1533 1533 1534 1535 1536 1536 1537 1537 1538 1538 1538 1538 1539 1539 1539 1540 1540 1540 1540 1540 1540
1527 1526 1526 1526 1526 1526 1526 1527 1527 1527 1528 1528 1529 1530 1530 1530 1531 1532 1532 1533 1533 1534 1534 1535 1535 1536 1537 1537 1538 1538 1539 1539 1539 1539 1540 1540 1540 1540 1540 1540 1540 1540 1540
1528 1527 1527 1527 1527 1527 1527 1528 1529 1529 1529 1529 1530 1531 1531 1532 1532 1533 1533 1534 1534 1535 1536 1536 1537 1537 1538 1538 1539 1539 1540 1540 1540 1540 1541 1541 1541 1541 1541 1541 1541 1541 1541
1530 1529 1528 1528 1528 1529 1529 1530 1530 1530 1530 1531 1531 1532 1532 1533 1533 1534 1534 1535 1535 1536 1537 1537 1538 1539 1539 1539 1540 1540 1541 1541 1541 1541 1542 1542 1542 1542 1541 1541 1541 1541 1541
1531 1531 1530 1530 1530 1530 1531 1531 1532 1532 1532 1532 1533 1533 1533 1534 1535 1535 1535 1536 1536 1537 1538 1538 1539 1540 1540 1541 1541 1541 1542 1542 1542 1542 1543 1542 1542 1542 1542 1542 1542 1542 1541
1533 1533 1532 1531 1532 1532 1532 1533 1533 1533 1534 1534 1534 1535 1535 1536 1536 1536 1537 1537 1538 1538 1539 1539 1540 1541 1541 1542 1542 1543 1543 1543 1543 1543 1543 1543 1543 1543 1543 1542 1542 1542 1542
1534 1534 1534 1534 1533 1534 1534 1534 1535 1535 1536 1536 1536 1536 1537 1537 1537 1537 1538 1539 1539 1539 1540 1541 1541 1542 1542 1543 1543 1544 1544 1544 1544 1544 1544 1544 1544 1544 1543 1543 1542 1542 1542
1536 1536 1536 1536 1536 1535 1536 1536 1536 1537 1537 1538 1538 1539 1539 1539 1539 1539 1540 1540 1540 1541 1541 1542 1542 1543 1544 1544 1544 1545 1545 1545 1545 1545 1545 1545 1545 1544 1544 1543 1543 1542 1542
1537 1537 1537 1537 1538 1538 1538 1538 1538 1539 1539 1540 1540 1541 1541 1541 1541 1541 1541 1542 1542 1542 1543 1543 1544 1544 1545 1545 1546 1546 1546 1546 1546 1546 1546 1546 1545 1545 1544 1544 1543 1543 1542
1538 1539 1539 1539 1540 1540 1540 1540 1540 1541 1541 1542 1542 1542 1543 1543 1543 1543 1543 1543 1543 1544 1544 1544 1545 1546 1546 1547 1547 1547 1547 1547 1547 1547 1547 1547 1546 1546 1545 1544 1544 1543 1542
1539 1540 1541 1541 1541 1541 1542 1542 1542 1543 1543 1543 1544 1544 1544 1545 1545 1545 1545 1545 1545 1545 1545 1546 1546 1547 1547 1548 1548 1548 1548 1548 1548 1548 1548 1547 1547 1546 1546 1545 1544 1544 1543
1540 1541 1542 1542 1543 1543 1543 1544 1544 1544 1545 1545 1545 1545 1546 1546 1546 1546 1546 1546 1546 1547 1547 1547 1548 1548 1548 1549 1549 1549 1549 1549 1549 1549 1548 1548 1547 1547 1547 1546 1545 1544 1543
1541 1542 1543 1543 1544 1544 1545 1545 1545 1546 1546 1546 1547 1547 1547 1547 1547 1547 1547 1547 1548 1548 1548 1549 1549 1549 1549 1550 1550 1550 1550 1550 1550 1550 1549 1549 1548 1548 1547 1547 1546 1545 1545
1541 1542 1543 1544 1544 1545 1546 1546 1547 1547 1547 1547 1548 1548 1548 1548 1548 1548 1549 1549 1549 1549 1550 1550 1550 1551 1551 1551 1551 1551 1551 1551 1551 1551 1550 1550 1549 1549 1548 1548 1547 1546 1546
1542 1543 1544 1544 1545 1546 1546 1547 1547 1548 1548 1548 1549 1549 1549 1549 1550 1550 1550 1550 1550 1551 1551 1551 1552 1552 1552 1552 1552 1552 1552 1552 1552 1552 1551 1551 1550 1550 1549 1548 1548 1547 1546
1542 1543 1544 1545 1546 1546 1547 1548 1548 1549 1549 1549 1550 1550 1550 1550 1551 1551 1551 1551 1552 1552 1552 1552 1553 1553 1553 1553 1553 1554 1554 1554 1554 1553 1553 1552 1552 1551 1550 1549 1549 1548 1547
1542 1543 1544 1545 1546 1547 1547 1548 1549 1549 1550 1550 1550 1551 1551 1551 1552 1552 1552 1552 1553 1553 1553 1553 1554 1554 1554 1555 1555 1555 1555 1555 1555 1555 1554 1554 1553 1552 1551 1551 1550 1549 1548
1542 1543 1544 1545 1546 1547 1547 1548 1549 1550 1550 1551 1551 1552 1552 1552 1553 1553 1553 1553 1553 1554 1554 1555 1555 1555 1556 1556 1556 1556 1557 1557 1556 1556 1555 1555 1554 1553 1552 1552 1551 1550 1549
1542 1543 1544 1545 1546 1547 1548 1548 1549 1550 1551 1551 1552 1552 1553 1553 1553 1553 1554 1554 1554 1555 1555 1556 1556 1556 1557 1557 1557 1557 1558 1559 1557 1557 1557 1556 1555 1555 1554 1553 1552 1551 1550
1541 1543 1544 1545 1546 1547 1548 1549 1549 1550 1551 1551 1552 1552 1553 1553 1554 1554 1554 1555 1555 1555 1556 1556 1557 1557 1557 1558 1558 1558 1558 1558 1558 1559 1558 1557 1556 1556 1555 1554 1553 1552 1551
1540 1542 1544 1545 1546 1547 1548 1549 1549 1550 1551 1551 1552 1552 1553 1553 1554 1554 1554 1555 1555 1556 1556 1557 1557 1557 1558 1558 1558 1558 1559 1558 1559 1559 1559 1558 1557 1557 1556 1555 1554 1553 1552
1539 1541 1543 1545 1546 1547 1548 1549 1549 1550 1551 1552 1552 1552 1553 1553 1554 1554 1554 1555 1555 1556 1556 1557 1557 1557 1558 1558 1558 1558 1558 1559 1559 1559 1559 1559 1558 1558 1557 1556 1555 1554 1553
1538 1541 1542 1544 1545 1547 1548 1548 1549 1550 1551 1551 1552 1552 1553 1553 1554 1554 1554 1555 1555 1556 1556 1557 1557 1557 1557 1558 1558 1558 1558 1559 1559 1559 1559 1558 1558 1558 1557 1557 1556 1555 1553